Regional Weather Roundup
Issued by NWS

Home | Current Version | Previous Version | Graphics & Text | Print | Product List | Glossary On
Versions: 1 2 3 4 5 6 7 8 9 10 11 12 13 14 15 16 17 18 19 20 21 22 23 24 25 26 27 28 29 30 31 32 33 34 35 36 37 38 39 40 41 42 43 44 45 46 47 48 49 50
000
ASUS43 KMPX 220410
RWRMN
WEATHER ROUNDUP FOR MINNESOTA
NATIONAL WEATHER SERVICE TWIN CITIES/CHANHASSEN MN
1000 PM CST WED FEB 21 2018


NOTE: "FAIR" INDICATES FEW OR NO CLOUDS BELOW 12,000 FEET WITH NO
SIGNIFICANT WEATHER AND/OR OBSTRUCTIONS TO VISIBILITY. N/A MEANS
CURRENT SKY AND/OR WEATHER CONDITIONS ARE NOT AVAILABLE.

MNZ060>063-068>070-220500-
   Twin Cities Metro

CITY           SKY/WX    TMP DP  RH WIND       PRES   REMARKS
TWIN CITIES    MOCLDY    15   5  64 S5        30.65R WCI   8
ST PAUL        FAIR      11   4  73 CALM      30.67R
CRYSTAL        FAIR       9   1  70 CALM      30.64R
BLAINE         FAIR      10   3  72 CALM      30.63S
LAKEVILLE      FAIR       5   3  92 CALM      30.64S
EDEN PRAIRIE   FAIR      12   3  67 CALM      30.64R
SOUTH ST PAUL  FAIR      10   5  80 CALM      30.65S
LAKE ELMO      FAIR       9   3  78 CALM      30.65S
$$
MNZ001>005-007-008-013>017-022>024-027-028-220500-
   Northwest Minnesota

CITY           SKY/WX    TMP DP  RH WIND       PRES   REMARKS
BEMIDJI        FAIR      -3 -10  73 CALM      30.51S
HALLOCK        FAIR      -6  -9  84 S7        30.51S WCI -20
ROSEAU         FAIR       1  -4  78 SW6       30.51R WCI -10
WARROAD        FAIR       1  -4  78 SW8       30.50S WCI -12
THIEF RVR FALL FAIR       1  -3  83 SW7       30.53R WCI -12
CROOKSTON      FAIR      -4  -9  77 S8        30.55S WCI -19
FOSSTON        FAIR      -6 -11  77 S6        30.52S WCI -18
DETROIT LAKES  FAIR       3  -4  72 S7        30.54R WCI  -9
MOORHEAD       FAIR       3  -4  72 S8        30.56F WCI -10
PARK RAPIDS    FAIR      -2  -9  72 CALM      30.53R
MAHNOMEN       FAIR       0  -8  69 S8        30.53S WCI -14
$$
MNZ006-009>011-018-025>026-220500-
   North Central Minnesota

CITY           SKY/WX    TMP DP  RH WIND       PRES   REMARKS
BAUDETTE       FAIR       0  -7  72 SW6       30.49S WCI -12
FLAG ISLAND    FAIR      -2  -8  78 SW8       30.48S WCI -17
INTL FALLS     FAIR       5  -5  63 W7        30.52R WCI  -7
WASKISH        FAIR      -9 -15  77 CALM      30.52S
BIG FORK       FAIR       1  -6  71 S5        30.52R WCI  -8
LONGVILLE      FAIR      -8 -13  77 CALM      30.55R
GRAND RAPIDS   FAIR       2  -4  76 S5        30.56R WCI  -8
CRANE LAKE     FAIR      -8  -9  92 CALM      30.55R
ORR            FAIR      10  -4  52 CALM      30.49R
COOK             N/A     10   0  61 CALM      30.53R
WALKER         FAIR       5  -6  60 CALM      30.52F
$$
MNZ012-019>021-037-220500-
   Northeast Minnesota

CITY           SKY/WX    TMP DP  RH WIND       PRES   REMARKS
DULUTH         FAIR      11  -2  56 SW8       30.56R WCI  -1
ELY            FAIR       7   0  72 SW5       30.52R WCI  -2
HIBBING        FAIR      -5  -8  87 S3        30.54R
EVELETH        FAIR     N/A N/A N/A SW7       30.54S
DULUTH HARBOR  FAIR      12   1  62 SW7       30.64R WCI   2
TWO HARBORS    FAIR       9   1  72 W5        30.57R WCI   0
GRAND MARAIS     N/A     18   4  54 W5        30.57F WCI  11
G MARAIS ARPRT FAIR       9   0  66 SW3       30.49F
$$
MNZ029>031-032-039>041-046>048-054>057-064-220500-
   West Central Minnesota

CITY           SKY/WX    TMP DP  RH WIND       PRES   REMARKS
FERGUS FALLS   FAIR       7  -2  66 SE6       30.57F WCI  -3
WHEATON        FAIR       0  -8  71 SE7       30.59R WCI -13
MORRIS         FAIR       1  -6  71 SE7       30.57S WCI -11
ALEXANDRIA     FAIR       4  -3  73 S7        30.56R WCI  -8
ELBOW LAKE     FAIR       3  -3  75 E6        30.57R WCI  -8
WADENA         FAIR       1  -6  71 S3        30.56R
GLENWOOD       FAIR       1  -2  85 S6        30.58R WCI -10
APPLETON       MOCLDY    10   1  67 S3        30.59S
ORTONVILLE     FAIR       3  -2  78 S3        30.56F
MADISON        FAIR       7   0  72 S3        30.58F
WILLMAR        FAIR       3  -2  78 SE5       30.61F WCI  -6
$$
MNZ033>034-036-042>043-049>051-058-059-220500-
   Central Minnesota

CITY           SKY/WX    TMP DP  RH WIND       PRES   REMARKS
ST CLOUD       FAIR       0  -3  87 CALM      30.61R
SAUK CENTRE    FAIR       1  -5  77 SE5       30.59S WCI  -9
PAYNESVILLE    FAIR      -2  -5  84 CALM      30.60F
AITKIN         FAIR       5  -6  61 S5        30.57R WCI  -4
PINE RIVER     FAIR      -2  -9  71 CALM      30.58R
BRAINERD       FAIR       8  -4  58 S6        30.58R WCI  -2
STAPLES        FAIR       0  -8  71 CALM      30.57R
LONG PRAIRIE   FAIR      -2  -6  84 SE5       30.58R WCI -12
LITTLE FALLS   FAIR       3  -8  60 CALM      30.60S
LITCHFIELD     FAIR       9   3  78 CALM      30.62R
BUFFALO        FAIR       9   1  72 CALM      30.64S
MAPLE LAKE     FAIR       9   3  76 CALM      30.64S
HUTCHINSON     FAIR       6   2  82 CALM      30.63S
$$
MNZ037-044-045-052-053-220500-
   East Central Minnesota

CITY           SKY/WX    TMP DP  RH WIND       PRES   REMARKS
PRINCETON      FAIR       3  -2  78 CALM      30.62S
CAMBRIDGE        N/A      5  -6  61 CALM      30.64R
RUSH CITY      FAIR       3  -3  75 S3        30.64S
MOOSE LAKE     FAIR       3  -4  72 W5        30.59R WCI  -6
HINCKLEY       FAIR       1  -6  71 CALM      30.62S
CLOQUET        FAIR      10  -2  56 SW5       30.57R WCI   2
MCGREGOR       FAIR       9   0  66 SW3       30.59R
$$
MNZ071>073-080-081-089-090-097-098-220500-
   Southwest Minnesota

CITY           SKY/WX    TMP DP  RH WIND       PRES   REMARKS
MONTEVIDEO     FAIR       7   1  78 CALM      30.59F
GRANITE FALLS  FAIR       6   0  76 SE6       30.61F WCI  -5
CANBY          FAIR       8   1  71 S6        30.58F WCI  -2
MARSHALL       FAIR       5   0  79 S5        30.58F WCI  -4
REDWOOD FALLS  FAIR       4   0  83 S7        30.61S WCI  -8
OLIVIA         FAIR       9   1  72 SE3       30.60F
PIPESTONE      MOCLDY     9   1  72 SE6       30.52S WCI  -1
WORTHINGTON    CLOUDY    12   8  84 E5        30.55F WCI   4
JACKSON        CLOUDY    14   9  79 E5        30.57S WCI   6
TRACY          FAIR      11   4  74 S3        30.56F
SLAYTON        CLOUDY     5   1  84 S3        30.55F
$$
MNZ065>067-074>077-082>085-091>093-220500-
   South Central Minnesota

CITY           SKY/WX    TMP DP  RH WIND       PRES   REMARKS
MANKATO        CLOUDY    11   5  77 SE3       30.63F
NEW ULM        FAIR       9   1  72 SE5       30.62S WCI   0
ST JAMES       FAIR      12   9  85 SE3       30.62F
FAIRMONT       CLOUDY    12   7  80 E3        30.61F
GLENCOE        FAIR      10   3  75 CALM      30.62F
FARIBAULT      MOCLDY     7   1  78 CALM      30.63F
OWATONNA       FAIR       9   7  92 CALM      30.62S
WASECA         CLOUDY    12   9  85 CALM      30.64S
ALBERT LEA     CLOUDY    16  10  79 CALM      30.60F
$$
MNZ078>079-086>088-094>096-220500-
   Southeast Minnesota

CITY           SKY/WX    TMP DP  RH WIND       PRES   REMARKS
ROCHESTER      MOCLDY    15  10  80 NE3       30.62R
RED WING       FAIR       7   1  78 CALM      30.66S
STANTON        FAIR       6   2  84 CALM      30.64S
DODGE CENTER   FAIR      12   9  85 CALM      30.62R
WINONA         FAIR      18  14  86 CALM      30.67R
AUSTIN         MOCLDY    18  12  79 CALM      30.61S
PRESTON        FAIR      15  11  83 CALM      30.63R
$$
ABBREVIATIONS USED IN REMARKS
   TC - TEMPERATURES IN CELSIUS
  WCI - WIND CHILL INDEX
   HX - HEAT INDEX
  VSB - VISIBILITY
$$




USA.gov is the U.S. government's official web portal to all federal, state and local government web resources and services.